Regional Weather Roundup
Issued by NWS Sioux Falls, SD

Home | Current Version | Previous Version | Graphics & Text | Print | Product List | Glossary On
Versions: 1 2 3 4 5 6 7 8 9 10 11 12 13 14 15 16 17 18 19 20 21 22 23 24 25 26 27 28 29 30 31 32 33 34 35 36 37 38 39 40 41 42 43 44 45 46 47 48 49 50
000
ASUS43 KFSD 261510
RWRFSD

WEATHER ROUNDUP FOR SE SOUTH DAKOTA/SW MINNESOTA/NW IOWA
NATIONAL WEATHER SERVICE SIOUX FALLS SD
900 AM CST FRI DEC 26 2014

NOTE: "FAIR" INDICATES FEW OR NO CLOUDS BELOW 12,000 FEET WITH NO
SIGNIFICANT WEATHER AND OR OBSTRUCTIONS TO VISIBILITY.


SDZ038>040-050-052>070-261600-
SOUTHEAST SOUTH DAKOTA

CITY           SKY/WX    TMP DP  RH WIND       PRES   REMARKS
CHAMBERLAIN    CLOUDY    24  22  93 N9        30.09S WCI  14
HURON          PTCLDY    23  17  78 N16       30.09S WCI  10
MADISON        CLOUDY    23  23 100 N17       30.02S WCI   9
MITCHELL       PTCLDY    24  22  91 N13       30.10R WCI  12
SIOUX FALLS    CLOUDY    27  23  85 N18       30.03R WCI  14
WINNER         FRZ RAIN  25  22  88 N17       30.09R FOG     WCI  12
YANKTON        CLOUDY    27  23  86 N14       30.06R WCI  15
$$

MNZ071-072-080-081-089-090-097-098-261600-
SOUTHWEST MINNESOTA

CITY           SKY/WX    TMP DP  RH WIND       PRES   REMARKS
FAIRMONT       CLOUDY    30  27  86 N18       29.95R WCI  18
JACKSON        CLOUDY    30  28  93 N14       29.97R WCI  20
LUVERNE        CLOUDY    30  27  86 N13G20    30.01R WCI  20
MARSHALL       CLOUDY    27  21  80 N17       30.04R WCI  14
MONTEVIDEO     CLOUDY    27  27 100 N13       30.07R WCI  16
PIPESTONE      CLOUDY    25  25 100 N14G20    30.00R WCI  13
REDWOOD FALLS  CLOUDY    29  26  89 N12G18    30.03R WCI  19
TRACY          CLOUDY    28  27  96 N13       30.02S FOG     WCI  17
WINDOM         CLOUDY    28  28 100 N20       29.98R WCI  15
WORTHINGTON    CLOUDY    27 -20  12 N17G25    29.98R WCI  14
$$

IAZ001>003-012>014-020>022-031-032-NEZ013-014-SDZ071-261600-
NORTHWEST IOWA

CITY           SKY/WX    TMP DP  RH WIND       PRES   REMARKS
CHEROKEE       CLOUDY    31  30  97 N10G17    29.99R WCI  22
DENISON        CLOUDY    32  32 100 N9G18     29.94R FOG     WCI  24
ESTHERVILLE    CLOUDY    30  29  96 N16       29.95R FOG     WCI  19
LE MARS        CLOUDY    30  28  93 N10G17    30.02R WCI  21
ORANGE CITY    CLOUDY    30  27  86 N10G20    29.99R WCI  21
SHELDON        CLOUDY    28  28 100 N16       29.99R WCI  17
SIOUX CITY     CLOUDY    31  27  85 N13       30.03R WCI  21
SPENCER        CLOUDY    31  28  89 N14       29.97R WCI  21
STORM LAKE     CLOUDY    30  30 100 N14G20    29.97R FOG     WCI  20
$$

ABBREVIATIONS USED IN REMARKS
   TC - TEMPERATURE IN CELSIUS
  WCI - WIND CHILL INDEX
   HX - HEAT INDEX
  VSB - VISIBILITY



USA.gov is the U.S. government's official web portal to all federal, state and local government web resources and services.